Weather History for Brescia, Italy

Change the Weather History Date:

Sunday, June 8, 2014

  Actual Average Record
Temperature  
Mean Temperature 80 °F -  
Max Temperature 93 °F 80 °F 93 °F (2014)
Min Temperature 65 °F 61 °F 51 °F (2005)
Cooling Degree Days 14    
Growing Degree Days 30 (Base 50)    
Moisture  
Dew Point 63 °F    
Average Humidity 49    
Maximum Humidity 100    
Minimum Humidity 21    
Precipitation  
Precipitation 0.00 in 0.10 in - ()
Sea Level Pressure  
Sea Level Pressure 30.12 in    
Wind  
Wind Speed 2 mph ()    
Max Wind Speed 5 mph    
Max Gust Speed -    
Visibility 3.9 miles    
Events      
Averages and records for this station are not official NWS values.
T = Trace of Precipitation, MM = Missing Value Source: Averaged Metar Reports

Daily Weather History Graph

Daily Weather History Graph

Search for Another Location

Airport:

Trip Planner

Search our weather history database for the weather conditions in past years. The results will help you decide how hot, cold, wet, or windy it might be!

Date:

Astronomy

Jun. 08, 2014 Rise Set
Actual Time 5:30 AM CEST 9:05 PM CEST
Civil Twilight 4:53 AM CEST 9:42 PM CEST
Nautical Twilight 4:04 AM CEST 10:32 PM CEST
Astronomical Twilight 2:58 AM CEST 11:38 PM CEST
Moon 3:53 PM CEST (6/8) 2:29 AM CEST (6/8)
Length of Visible Light 16h 49m
Length of Day
15h 34m
Waxing Gibbous, 74% of the Moon is Illuminated
Jun 8
Waxing Gibbous
Jun 13
Full
Jun 19
Last Quarter
Jun 27
New
Jul 5
First Quarter

Hourly Weather History & Observations

Time (CEST) Temp. Heat Index Dew Point Humidity Pressure Visibility Wind Dir Wind Speed Gust Speed Precip Events Conditions
6:55 AM 66.2 °F - 66.2 °F 100% 30.12 in 3.1 mi North 1.2 mph - N/A   Mist
7:00 AM 66 °F - 66 °F 99% 30.13 in 3 mi North 1.2 mph - -   Mist
7:55 AM 69.8 °F - 68.0 °F 94% 30.12 in 3.1 mi Calm Calm - N/A   Mist
8:00 AM 69 °F - 67 °F 93% 30.13 in 3 mi Calm Calm - -   Mist
8:55 AM 73.4 °F - 68.0 °F 83% 30.12 in 3.1 mi WSW 2.3 mph - N/A   Mist
9:00 AM 74 °F - 68 °F 75% 30.14 in 3 mi WSW 2.3 mph - -   Mist
9:55 AM 78.8 °F - 64.4 °F 61% 30.15 in 3.1 mi SSW 2.3 mph - N/A   Mist
10:00 AM 79 °F - 64 °F 50% 30.14 in 3 mi SSW 2.3 mph - -   Mist
10:55 AM 80.6 °F 82.3 °F 64.4 °F 58% 30.15 in 3.1 mi WSW 3.5 mph - N/A   Mist
11:00 AM 81 °F - 64 °F 46% 30.14 in 3 mi WSW 3.5 mph - -   Mist
11:55 AM 84.2 °F 85.6 °F 64.4 °F 51% 30.15 in 3.7 mi SW 3.5 mph - N/A   Unknown
12:00 PM 84 °F - 64 °F 40% 30.14 in 4 mi SW 3.5 mph - -   Mist
12:55 PM 86.0 °F 86.6 °F 62.6 °F 45% 30.12 in 3.7 mi SW 3.5 mph - N/A   Unknown
1:00 PM 86 °F - 62 °F 34% 30.13 in 4 mi SW 3.5 mph - -   Haze
1:55 PM 87.8 °F 87.6 °F 60.8 °F 40% 30.12 in 3.7 mi West 4.6 mph - N/A   Unknown
2:00 PM 88 °F - 61 °F 30% 30.12 in 4 mi West 4.6 mph - -   Haze
2:55 PM 89.6 °F 89.5 °F 60.8 °F 38% 30.12 in 3.7 mi West 4.6 mph - N/A   Unknown
3:00 PM 89 °F - 60 °F 28% 30.11 in 4 mi West 4.6 mph - -   Haze
3:55 PM 91.4 °F 91.4 °F 60.8 °F 36% 30.12 in 3.7 mi WSW 4.6 mph - N/A   Unknown
4:00 PM 91 °F - 61 °F 27% 30.10 in 4 mi WSW 4.6 mph - -   Haze
4:55 PM 91.4 °F 90.7 °F 59.0 °F 34% 30.09 in 5.0 mi SSW 3.5 mph - N/A   Unknown
5:00 PM 92 °F - 60 °F 24% 30.09 in 5 mi SSW 3.5 mph - -   Haze
5:55 PM 93.2 °F 92.6 °F 59.0 °F 32% 30.09 in 5.0 mi WSW 3.5 mph - N/A   Unknown
6:00 PM 94 °F - 58 °F 21% 30.09 in 5 mi WSW 3.5 mph - -   Haze
7:00 PM 93 °F - 60 °F 23% 30.08 in 5 mi WSW 2.3 mph - -   Haze
7:55 PM 93.2 °F 92.6 °F 59.0 °F 32% 30.09 in 5.0 mi West 2.3 mph - N/A   Unknown
8:00 PM 93 °F - 60 °F 23% 30.08 in 5 mi West 2.3 mph - -   Haze